sat.trackr.live / text

‹ back to catalog

O3B MPOWER F6

NORAD 58347 · 2023-175B

PAYLOAD ACTIVE UNKNOWN

§ Identity

Operator
Country
O3B
Launch date
2023-11-12
Launch site
AFETR
Launch vehicle
Mass (kg)
RCS (m²)

Purposes: comms

External: N2YO · Heavens-Above · Gunter

§ Orbital elements

Epoch: 2026-09-19T18:10:32.874816Z

Period
287.93 min
Inclination
0.0580°
Eccentricity
0.0004545
Mean motion
5.00115578 rev/d
Perigee alt
8,059.3 km
Apogee alt
8,072.5 km
Semi-major
14,444.0 km
B*
0.0000e+0
RAAN
356.1564°
Arg perigee
188.8993°
Mean anomaly
174.9420°
Rev number
5,308

§ Raw data

O3B MPOWER F61 58347U 23175B   26262.75732494 -.00000027  00000+0  00000+0 0  99922 58347   0.0580 356.1564 0004545 188.8993 174.9420  5.00115578 53081

JSON: /api/v1/satellites/58347 · /tle

For live sub-satellite position, see the globe view (requires WebGL).

§ Visibility from observer

Set your observer location to see the next 7 days of passes ≥ 10°. The values pass through the URL so the page stays shareable.

No JS? Fill the form by hand. The geolocation button needs JavaScript.